Time,TemperatureF,DewpointF,PressureIn,WindDirection,WindDirectionDegrees,WindSpeedMPH,WindSpeedGustMPH,Humidity,HourlyPrecipIn,Conditions,Clouds,dailyrainin,SoftwareType,DateUTC
2013-02-17 00:14:00,54.3,40.0,30.17,NW,309,16.0,31.0,58,0.00,,,0.00,weatherlink.com 1.10,2013-02-17 05:14:00,
2013-02-17 00:29:00,54.0,39.0,30.18,NNW,347,17.0,30.0,57,0.00,,,0.00,weatherlink.com 1.10,2013-02-17 05:29:00,
2013-02-17 00:44:00,53.7,39.0,30.19,NNW,333,9.0,24.0,57,0.00,,,0.00,weatherlink.com 1.10,2013-02-17 05:44:00,
2013-02-17 00:59:00,53.3,38.0,30.19,North,349,11.0,22.0,56,0.00,,,0.00,weatherlink.com 1.10,2013-02-17 05:59:00,
2013-02-17 01:14:00,53.0,36.0,30.19,NW,324,13.0,24.0,53,0.00,,,0.00,weatherlink.com 1.10,2013-02-17 06:14:00,
2013-02-17 01:29:00,52.6,37.0,30.20,NNW,333,13.0,23.0,55,0.00,,,0.00,weatherlink.com 1.10,2013-02-17 06:29:00,
2013-02-17 01:44:00,52.3,35.0,30.20,NNW,336,14.0,24.0,52,0.00,,,0.00,weatherlink.com 1.10,2013-02-17 06:44:00,
2013-02-17 02:00:00,52.0,34.0,30.20,North,354,13.0,25.0,51,0.00,,,0.00,weatherlink.com 1.10,2013-02-17 07:00:00,
2013-02-17 02:14:00,51.8,35.0,30.20,NW,326,20.0,22.0,53,0.00,,,0.00,weatherlink.com 1.10,2013-02-17 07:14:00,
2013-02-17 02:29:00,51.4,34.0,30.21,North,1,10.0,20.0,51,0.00,,,0.00,weatherlink.com 1.10,2013-02-17 07:29:00,
2013-02-17 02:44:00,51.2,33.0,30.21,NNW,332,12.0,23.0,50,0.00,,,0.00,weatherlink.com 1.10,2013-02-17 07:44:00,
2013-02-17 02:59:00,50.9,33.0,30.21,NNW,340,11.0,18.0,51,0.00,,,0.00,weatherlink.com 1.10,2013-02-17 07:59:00,
2013-02-17 03:14:00,50.6,33.0,30.21,NNW,332,15.0,18.0,52,0.00,,,0.00,weatherlink.com 1.10,2013-02-17 08:14:00,
2013-02-17 03:30:00,50.4,33.0,30.21,WNW,302,6.0,18.0,51,0.00,,,0.00,weatherlink.com 1.10,2013-02-17 08:30:00,
2013-02-17 03:45:00,49.3,32.0,30.21,NNW,330,13.0,20.0,52,0.00,,,0.00,weatherlink.com 1.10,2013-02-17 08:45:00,
2013-02-17 04:00:00,48.4,32.0,30.22,NNW,336,12.0,21.0,53,0.00,,,0.00,weatherlink.com 1.10,2013-02-17 09:00:00,
2013-02-17 04:15:00,47.8,32.0,30.22,North,356,9.0,14.0,55,0.00,,,0.00,weatherlink.com 1.10,2013-02-17 09:15:00,
2013-02-17 04:30:00,46.5,31.0,30.23,NNE,23,8.0,11.0,56,0.00,,,0.00,weatherlink.com 1.10,2013-02-17 09:30:00,
2013-02-17 04:45:00,45.9,29.0,30.23,NNE,23,17.0,17.0,51,0.00,,,0.00,weatherlink.com 1.10,2013-02-17 09:45:00,
2013-02-17 05:00:00,45.7,29.0,30.24,NNE,13,13.0,17.0,52,0.00,,,0.00,weatherlink.com 1.10,2013-02-17 10:00:00,
2013-02-17 05:15:00,45.5,28.0,30.24,NNE,13,12.0,17.0,51,0.00,,,0.00,weatherlink.com 1.10,2013-02-17 10:15:00,
2013-02-17 05:30:00,45.1,27.0,30.25,NNE,13,14.0,18.0,49,0.00,,,0.00,weatherlink.com 1.10,2013-02-17 10:30:00,
2013-02-17 05:45:00,44.8,26.0,30.26,North,7,14.0,19.0,48,0.00,,,0.00,weatherlink.com 1.10,2013-02-17 10:45:00,
2013-02-17 06:00:00,44.4,25.0,30.27,ENE,57,14.0,17.0,47,0.00,,,0.00,weatherlink.com 1.10,2013-02-17 11:00:00,
2013-02-17 06:15:00,44.2,25.0,30.27,NNE,12,17.0,22.0,47,0.00,,,0.00,weatherlink.com 1.10,2013-02-17 11:15:00,
2013-02-17 06:30:00,43.9,25.0,30.27,NNE,12,16.0,21.0,47,0.00,,,0.00,weatherlink.com 1.10,2013-02-17 11:30:00,
2013-02-17 06:45:00,43.7,25.0,30.28,NNW,347,13.0,22.0,48,0.00,,,0.00,weatherlink.com 1.10,2013-02-17 11:45:00,
2013-02-17 07:01:00,43.4,24.0,30.29,NNE,13,12.0,20.0,47,0.00,,,0.00,weatherlink.com 1.10,2013-02-17 12:01:00,
2013-02-17 07:15:00,43.2,25.0,30.29,NNE,29,16.0,19.0,48,0.00,,,0.00,weatherlink.com 1.10,2013-02-17 12:15:00,
2013-02-17 07:30:00,43.3,26.0,30.30,North,359,18.0,20.0,51,0.00,,,0.00,weatherlink.com 1.10,2013-02-17 12:30:00,
2013-02-17 07:45:00,43.2,24.0,30.31,NNE,18,14.0,18.0,47,0.00,,,0.00,weatherlink.com 1.10,2013-02-17 12:45:00,
2013-02-17 08:00:00,43.4,24.0,30.31,North,356,13.0,18.0,47,0.00,,,0.00,weatherlink.com 1.10,2013-02-17 13:00:00,
2013-02-17 08:15:00,43.6,24.0,30.32,NNW,333,8.0,20.0,46,0.00,,,0.00,weatherlink.com 1.10,2013-02-17 13:15:00,
2013-02-17 08:30:00,44.2,27.0,30.33,NNE,13,12.0,21.0,51,0.00,,,0.00,weatherlink.com 1.10,2013-02-17 13:30:00,
2013-02-17 08:45:00,44.4,26.0,30.33,NNE,27,9.0,20.0,49,0.00,,,0.00,weatherlink.com 1.10,2013-02-17 13:45:00,
2013-02-17 09:00:00,44.5,26.0,30.34,NNE,13,19.0,22.0,48,0.00,,,0.00,weatherlink.com 1.10,2013-02-17 14:00:00,
2013-02-17 09:15:00,44.6,25.0,30.34,NNE,29,13.0,22.0,47,0.00,,,0.00,weatherlink.com 1.10,2013-02-17 14:15:00,
2013-02-17 09:30:00,44.5,25.0,30.35,North,10,15.0,21.0,47,0.00,,,0.00,weatherlink.com 1.10,2013-02-17 14:30:00,
2013-02-17 09:45:00,44.7,25.0,30.35,NNW,340,16.0,20.0,47,0.00,,,0.00,weatherlink.com 1.10,2013-02-17 14:45:00,
2013-02-17 10:15:00,45.1,27.0,30.36,North,351,11.0,21.0,49,0.00,,,0.00,weatherlink.com 1.10,2013-02-17 15:15:00,
2013-02-17 10:30:00,45.6,28.0,30.36,North,5,11.0,20.0,50,0.00,,,0.00,weatherlink.com 1.10,2013-02-17 15:30:00,
2013-02-17 10:45:00,46.3,29.0,30.37,NNE,16,15.0,18.0,52,0.00,,,0.00,weatherlink.com 1.10,2013-02-17 15:45:00,
2013-02-17 11:00:00,46.5,30.0,30.37,NNW,334,12.0,20.0,52,0.00,,,0.00,weatherlink.com 1.10,2013-02-17 16:00:00,
2013-02-17 11:15:00,46.9,30.0,30.37,NNW,338,14.0,19.0,52,0.00,,,0.00,weatherlink.com 1.10,2013-02-17 16:15:00,
2013-02-17 11:30:00,47.2,31.0,30.37,NNW,339,11.0,19.0,54,0.00,,,0.00,weatherlink.com 1.10,2013-02-17 16:30:00,
2013-02-17 11:45:00,47.2,31.0,30.37,NW,319,15.0,21.0,53,0.00,,,0.00,weatherlink.com 1.10,2013-02-17 16:45:00,
2013-02-17 12:00:00,46.7,30.0,30.37,NW,319,7.0,21.0,53,0.00,,,0.00,weatherlink.com 1.10,2013-02-17 17:00:00,
2013-02-17 12:15:00,46.9,31.0,30.37,NNW,334,19.0,22.0,55,0.00,,,0.00,weatherlink.com 1.10,2013-02-17 17:15:00,
2013-02-17 12:30:00,47.3,32.0,30.37,NNW,340,13.0,19.0,56,0.00,,,0.00,weatherlink.com 1.10,2013-02-17 17:30:00,
2013-02-17 12:45:00,47.8,32.0,30.36,NW,318,13.0,18.0,55,0.00,,,0.00,weatherlink.com 1.10,2013-02-17 17:45:00,
2013-02-17 13:00:00,48.0,30.0,30.36,NNW,342,11.0,18.0,51,0.00,,,0.00,weatherlink.com 1.10,2013-02-17 18:00:00,
2013-02-17 13:15:00,47.6,29.0,30.35,NNW,330,13.0,23.0,49,0.00,,,0.00,weatherlink.com 1.10,2013-02-17 18:15:00,
2013-02-17 13:30:00,48.0,28.0,30.35,North,8,15.0,22.0,46,0.00,,,0.00,weatherlink.com 1.10,2013-02-17 18:30:00,
2013-02-17 13:45:00,48.0,26.0,30.34,NW,318,9.0,17.0,43,0.00,,,0.00,weatherlink.com 1.10,2013-02-17 18:45:00,
2013-02-17 14:00:00,48.2,26.0,30.34,NNW,333,13.0,20.0,43,0.00,,,0.00,weatherlink.com 1.10,2013-02-17 19:00:00,
2013-02-17 14:15:00,48.1,25.0,30.33,NNW,330,16.0,19.0,40,0.00,,,0.00,weatherlink.com 1.10,2013-02-17 19:15:00,
2013-02-17 14:30:00,48.2,28.0,30.33,NNW,339,12.0,16.0,45,0.00,,,0.00,weatherlink.com 1.10,2013-02-17 19:30:00,
2013-02-17 14:45:00,48.5,29.0,30.33,NW,314,12.0,16.0,47,0.00,,,0.00,weatherlink.com 1.10,2013-02-17 19:45:00,
2013-02-17 15:00:00,48.8,27.0,30.33,NNW,338,11.0,16.0,43,0.00,,,0.00,weatherlink.com 1.10,2013-02-17 20:00:00,
2013-02-17 15:15:00,49.1,26.0,30.33,NNW,330,12.0,17.0,41,0.00,,,0.00,weatherlink.com 1.10,2013-02-17 20:15:00,
2013-02-17 15:30:00,48.8,27.0,30.33,NNW,346,8.0,17.0,43,0.00,,,0.00,weatherlink.com 1.10,2013-02-17 20:30:00,
2013-02-17 15:46:00,49.0,28.0,30.32,NNW,345,15.0,16.0,45,0.00,,,0.00,weatherlink.com 1.10,2013-02-17 20:46:00,
2013-02-17 16:00:00,49.3,27.0,30.32,NW,319,12.0,15.0,43,0.00,,,0.00,weatherlink.com 1.10,2013-02-17 21:00:00,
2013-02-17 16:16:00,49.2,29.0,30.32,NW,321,7.0,15.0,46,0.00,,,0.00,weatherlink.com 1.10,2013-02-17 21:16:00,
2013-02-17 16:30:00,49.5,28.0,30.32,NNW,342,13.0,16.0,44,0.00,,,0.00,weatherlink.com 1.10,2013-02-17 21:30:00,
2013-02-17 16:45:00,49.5,26.0,30.32,WNW,303,11.0,14.0,41,0.00,,,0.00,weatherlink.com 1.10,2013-02-17 21:45:00,
2013-02-17 17:00:00,49.3,27.0,30.32,NNW,336,10.0,15.0,42,0.00,,,0.00,weatherlink.com 1.10,2013-02-17 22:00:00,
2013-02-17 17:15:00,49.4,28.0,30.31,NNW,340,8.0,14.0,43,0.00,,,0.00,weatherlink.com 1.10,2013-02-17 22:15:00,
2013-02-17 17:30:00,49.6,27.0,30.32,NW,318,11.0,13.0,42,0.00,,,0.00,weatherlink.com 1.10,2013-02-17 22:30:00,
2013-02-17 17:45:00,49.4,28.0,30.32,NW,314,6.0,13.0,43,0.00,,,0.00,weatherlink.com 1.10,2013-02-17 22:45:00,
2013-02-17 18:00:00,49.5,30.0,30.32,NW,326,8.0,12.0,47,0.00,,,0.00,weatherlink.com 1.10,2013-02-17 23:00:00,
2013-02-17 18:15:00,48.9,29.0,30.32,WNW,293,7.0,13.0,47,0.00,,,0.00,weatherlink.com 1.10,2013-02-17 23:15:00,
2013-02-17 18:31:00,48.5,30.0,30.32,NNW,338,9.0,13.0,49,0.00,,,0.00,weatherlink.com 1.10,2013-02-17 23:31:00,
2013-02-17 18:45:00,48.4,31.0,30.32,NNW,338,7.0,12.0,52,0.00,,,0.00,weatherlink.com 1.10,2013-02-17 23:45:00,
2013-02-17 19:00:00,48.2,31.0,30.32,NNW,336,7.0,12.0,52,0.00,,,0.00,weatherlink.com 1.10,2013-02-18 00:00:00,
2013-02-17 19:15:00,48.1,32.0,30.33,NNW,345,6.0,10.0,54,0.00,,,0.00,weatherlink.com 1.10,2013-02-18 00:15:00,
2013-02-17 19:30:00,48.1,33.0,30.33,NNW,343,6.0,9.0,56,0.00,,,0.00,weatherlink.com 1.10,2013-02-18 00:30:00,
2013-02-17 19:45:00,48.1,32.0,30.33,NNW,335,8.0,10.0,55,0.00,,,0.00,weatherlink.com 1.10,2013-02-18 00:45:00,
2013-02-17 20:01:00,47.8,32.0,30.34,NNE,18,7.0,8.0,55,0.00,,,0.00,weatherlink.com 1.10,2013-02-18 01:01:00,
2013-02-17 20:15:00,47.6,33.0,30.34,NNE,23,6.0,9.0,57,0.00,,,0.00,weatherlink.com 1.10,2013-02-18 01:15:00,
2013-02-17 20:30:00,47.4,33.0,30.35,NNW,333,6.0,8.0,58,0.00,,,0.00,weatherlink.com 1.10,2013-02-18 01:30:00,
2013-02-17 20:46:00,47.1,32.0,30.35,North,1,6.0,8.0,57,0.00,,,0.00,weatherlink.com 1.10,2013-02-18 01:46:00,
2013-02-17 21:01:00,47.1,33.0,30.36,NNE,22,4.0,7.0,59,0.00,,,0.00,weatherlink.com 1.10,2013-02-18 02:01:00,
2013-02-17 21:15:00,47.1,33.0,30.36,NNE,19,6.0,8.0,59,0.00,,,0.00,weatherlink.com 1.10,2013-02-18 02:15:00,
2013-02-17 21:30:00,47.3,34.0,30.36,North,359,5.0,9.0,60,0.00,,,0.00,weatherlink.com 1.10,2013-02-18 02:30:00,
2013-02-17 21:45:00,47.5,34.0,30.36,NNE,15,7.0,7.0,60,0.00,,,0.00,weatherlink.com 1.10,2013-02-18 02:45:00,
2013-02-17 22:01:00,47.6,34.0,30.37,NNW,338,7.0,9.0,59,0.00,,,0.00,weatherlink.com 1.10,2013-02-18 03:01:00,
2013-02-17 22:16:00,47.6,33.0,30.37,North,351,8.0,9.0,58,0.00,,,0.00,weatherlink.com 1.10,2013-02-18 03:16:00,
2013-02-17 22:31:00,47.6,34.0,30.37,NNE,25,5.0,9.0,59,0.00,,,0.00,weatherlink.com 1.10,2013-02-18 03:31:00,
2013-02-17 22:46:00,47.5,34.0,30.38,NNE,25,5.0,8.0,59,0.00,,,0.00,weatherlink.com 1.10,2013-02-18 03:46:00,
2013-02-17 23:01:00,47.1,34.0,30.38,NNE,18,7.0,9.0,61,0.00,,,0.00,weatherlink.com 1.10,2013-02-18 04:01:00,
2013-02-17 23:16:00,47.0,35.0,30.38,NNE,13,6.0,7.0,63,0.00,,,0.00,weatherlink.com 1.10,2013-02-18 04:16:00,
2013-02-17 23:31:00,47.0,35.0,30.38,NNE,23,4.0,7.0,63,0.00,,,0.00,weatherlink.com 1.10,2013-02-18 04:31:00,
2013-02-17 23:46:00,46.7,35.0,30.38,NNE,20,5.0,6.0,63,0.00,,,0.00,weatherlink.com 1.10,2013-02-18 04:46:00,